Weather History for Wiscasset, ME

Change the Weather History Date:

Sunday, March 30, 2014

  Actual Average Record
Temperature  
Mean Temperature 36 °F -  
Max Temperature 39 °F 43 °F 63 °F (1998)
Min Temperature 33 °F 27 °F 21 °F (2007)
Degree Days  
Heating Degree Days 29    
Moisture  
Dew Point 34 °F    
Average Humidity 92    
Maximum Humidity 97    
Minimum Humidity 89    
Precipitation  
Precipitation 1.42 in - - ()
Sea Level Pressure  
Sea Level Pressure 29.85 in    
Wind  
Wind Speed 8 mph (NE)    
Max Wind Speed 16 mph    
Max Gust Speed 25 mph    
Visibility 4 miles    
Events Rain    
Averages and records for this station are not official NWS values.
T = Trace of Precipitation, MM = Missing Value Source: NWS Daily Summary

Daily Weather History Graph

Daily Weather History Graph

Search for Another Location

Airport:

Trip Planner

Search our weather history database for the weather conditions in past years. The results will help you decide how hot, cold, wet, or windy it might be!

Date:

Astronomy

Mar. 30, 2014 Rise Set
Actual Time 6:23 AM EDT 7:03 PM EDT
Civil Twilight 5:54 AM EDT 7:32 PM EDT
Nautical Twilight 5:20 AM EDT 8:07 PM EDT
Astronomical Twilight 4:44 AM EDT 8:42 PM EDT
Moon 6:07 AM EDT (3/30) 7:13 PM EDT (3/30)
Length of Visible Light 13h 37m
Length of Day
12h 39m
Waning Crescent, 0% of the Moon is Illuminated
Mar 30
Waning Crescent
Mar 30
New
Apr 7
First Quarter
Apr 15
Full
Apr 22
Last Quarter

Hourly Weather History & Observations

Time (EDT) Temp. Windchill Dew Point Humidity Pressure Visibility Wind Dir Wind Speed Gust Speed Precip Events Conditions
12:31 AM 37.9 °F 33.5 °F 36.0 °F 93% 30.14 in 7.0 mi ENE 5.8 mph - 0.05 in Rain Light Rain
12:53 AM 37.9 °F - 36.0 °F 93% 30.12 in 7.0 mi North - - 0.06 in Rain Light Rain
1:39 AM 37.9 °F 32.7 °F 36.0 °F 93% 30.09 in 6.0 mi Variable 6.9 mph - 0.03 in Rain Light Rain
1:53 AM 37.9 °F 33.5 °F 36.0 °F 93% 30.08 in 5.0 mi Variable 5.8 mph - 0.05 in Rain Light Rain
2:53 AM 37.9 °F 34.4 °F 37.0 °F 97% 30.03 in 4.0 mi Variable 4.6 mph - 0.13 in Rain Rain
3:53 AM 39.0 °F 34.8 °F 37.0 °F 93% 29.99 in 3.0 mi Variable 5.8 mph - 0.11 in Rain Rain
4:34 AM 39.0 °F 32.8 °F 37.0 °F 93% 29.97 in 4.0 mi ENE 9.2 mph 18.4 mph 0.07 in Rain Light Rain
4:53 AM 39.0 °F 32.8 °F 37.0 °F 93% 29.97 in 4.0 mi ENE 9.2 mph - 0.11 in Rain Light Rain
5:49 AM 37.4 °F 30.3 °F 35.6 °F 93% 29.96 in 5.0 mi ENE 10.4 mph 18.4 mph 0.06 in Rain Light Rain
5:53 AM 37.9 °F 31.5 °F 36.0 °F 93% 29.96 in 4.0 mi NE 9.2 mph 18.4 mph 0.06 in Rain Rain
6:24 AM 37.9 °F 32.1 °F 35.1 °F 89% 29.95 in 6.0 mi ENE 8.1 mph 18.4 mph 0.07 in Rain Light Rain
6:53 AM 37.0 °F 30.4 °F 35.1 °F 93% 29.94 in 5.0 mi NE 9.2 mph 19.6 mph 0.13 in Rain Rain
7:53 AM 37.0 °F 29.8 °F 34.0 °F 89% 29.92 in 4.0 mi ENE 10.4 mph 20.7 mph 0.06 in Rain Light Rain
8:14 AM 36.0 °F 29.0 °F 34.0 °F 93% 29.91 in 2.5 mi NE 9.2 mph - 0.03 in Rain Light Rain
8:22 AM 36.0 °F 29.6 °F 34.0 °F 93% 29.90 in 3.0 mi NE 8.1 mph 16.1 mph 0.04 in Rain Light Rain
8:32 AM 36.0 °F 29.6 °F 34.0 °F 93% 29.91 in 2.0 mi NE 8.1 mph 18.4 mph 0.08 in Rain Rain
8:40 AM 36.0 °F 29.0 °F 34.0 °F 93% 29.90 in 1.8 mi NE 9.2 mph 18.4 mph 0.12 in Rain Rain
8:49 AM 35.6 °F 29.2 °F 33.8 °F 93% 29.90 in 3.0 mi NE 8.1 mph 18.4 mph 0.14 in Rain Light Rain
8:53 AM 36.0 °F 30.3 °F 34.0 °F 93% 29.90 in 3.0 mi Variable 6.9 mph 16.1 mph 0.15 in Rain Light Rain
9:07 AM 36.0 °F 29.6 °F 34.0 °F 93% 29.89 in 2.5 mi NE 8.1 mph - 0.05 in Rain Rain
9:40 AM 36.0 °F 29.0 °F 34.0 °F 93% 29.88 in 4.0 mi ENE 9.2 mph 20.7 mph 0.18 in Rain Rain
9:53 AM 36.0 °F 28.5 °F 34.0 °F 93% 29.88 in 4.0 mi NE 10.4 mph 21.9 mph 0.22 in Rain Light Rain
10:45 AM 36.0 °F 28.0 °F 34.0 °F 93% 29.83 in 2.5 mi ENE 11.5 mph 21.9 mph 0.14 in Rain Rain
10:53 AM 36.0 °F 27.1 °F 34.0 °F 93% 29.82 in 2.5 mi ENE 13.8 mph 25.3 mph 0.17 in Rain Rain
11:29 AM 36.0 °F 26.3 °F 34.0 °F 93% 29.79 in 3.0 mi ENE 16.1 mph 25.3 mph 0.09 in Rain Light Rain
11:53 AM 36.0 °F 28.5 °F 34.0 °F 93% 29.78 in 6.0 mi ENE 10.4 mph 17.3 mph 0.12 in Rain Light Rain
12:23 PM 37.0 °F 31.0 °F 34.0 °F 89% 29.80 in 10.0 mi NE 8.1 mph 18.4 mph 0.01 in   Overcast
12:53 PM 37.0 °F 34.5 °F 34.0 °F 89% 29.81 in 10.0 mi Variable 3.5 mph - 0.01 in   Overcast
1:24 PM 37.0 °F 34.5 °F 35.1 °F 93% 29.80 in 1.8 mi Variable 3.5 mph - 0.01 in   Overcast
1:29 PM 37.0 °F 33.3 °F 36.0 °F 96% 29.80 in 1.2 mi Variable 4.6 mph - 0.01 in   Overcast
1:53 PM 37.0 °F 31.0 °F 35.1 °F 93% 29.78 in 1.5 mi NNE 8.1 mph - 0.02 in   Overcast
2:01 PM 37.0 °F 32.4 °F 35.1 °F 93% 29.77 in 1.2 mi Variable 5.8 mph - N/A   Overcast
2:11 PM 37.0 °F 31.6 °F 35.1 °F 93% 29.78 in 1.5 mi North 6.9 mph - 0.01 in   Overcast
2:44 PM 37.0 °F 34.5 °F 35.1 °F 93% 29.77 in 2.0 mi Variable 3.5 mph - 0.02 in   Overcast
2:53 PM 37.0 °F 31.6 °F 35.1 °F 93% 29.78 in 2.0 mi Variable 6.9 mph - 0.02 in   Overcast
3:53 PM 37.0 °F 32.4 °F 35.1 °F 93% 29.75 in 3.0 mi Variable 5.8 mph - N/A   Overcast
4:26 PM 36.0 °F 29.6 °F 34.0 °F 93% 29.75 in 2.5 mi North 8.1 mph 18.4 mph N/A   Overcast
4:53 PM 36.0 °F 29.0 °F 34.0 °F 93% 29.75 in 2.5 mi NNE 9.2 mph 20.7 mph N/A   Overcast
5:16 PM 36.0 °F 29.6 °F 34.0 °F 93% 29.76 in 3.0 mi North 8.1 mph 17.3 mph N/A   Overcast
5:29 PM 36.0 °F 30.3 °F 34.0 °F 93% 29.76 in 2.5 mi Variable 6.9 mph 17.3 mph N/A   Overcast
5:44 PM 36.0 °F 29.6 °F 34.0 °F 93% 29.74 in 3.0 mi NNE 8.1 mph - N/A   Overcast
5:53 PM 36.0 °F 29.6 °F 34.0 °F 93% 29.75 in 3.0 mi NNE 8.1 mph - N/A   Overcast
6:25 PM 36.0 °F 28.5 °F 33.1 °F 89% 29.77 in 3.0 mi NNE 10.4 mph 18.4 mph N/A   Overcast
6:40 PM 36.0 °F 29.6 °F 33.1 °F 89% 29.76 in 3.0 mi NNE 8.1 mph 19.6 mph N/A   Overcast
6:53 PM 35.1 °F 31.0 °F 33.1 °F 92% 29.77 in 4.0 mi Variable 4.6 mph 21.9 mph N/A   Overcast
7:53 PM 35.1 °F 30.1 °F 33.1 °F 92% 29.78 in 9.0 mi Variable 5.8 mph 19.6 mph N/A   Overcast
8:53 PM 34.0 °F 28.0 °F 32.0 °F 92% 29.76 in 9.0 mi Variable 6.9 mph - N/A   Overcast
9:00 PM 34.0 °F 26.6 °F 32.0 °F 92% 29.76 in 9.0 mi NNE 9.2 mph - N/A   Overcast
9:44 PM 34.0 °F 26.6 °F 30.9 °F 89% 29.77 in 10.0 mi NNE 9.2 mph 20.7 mph N/A   Overcast
9:53 PM 34.0 °F 28.0 °F 30.9 °F 89% 29.78 in 10.0 mi Variable 6.9 mph 20.7 mph N/A   Overcast
10:53 PM 33.1 °F 26.9 °F 30.0 °F 89% 29.77 in 10.0 mi Variable 6.9 mph 16.1 mph N/A   Overcast
11:53 PM 33.1 °F 24.4 °F 30.0 °F 89% 29.76 in 10.0 mi NNE 11.5 mph 20.7 mph N/A   Overcast